Regional Weather Roundup
Issued by NWS Grand Forks, ND

Home | Current Version | Previous Version | Graphics & Text | Print | Product List | Glossary On
Versions: 1 2 3 4 5 6 7 8 9 10 11 12 13 14 15 16 17 18 19 20 21 22 23 24 25 26 27 28 29 30 31 32 33 34 35 36 37 38 39 40 41 42 43 44 45 46 47 48 49 50
000
ASUS43 KFGF 050131
RWRFGF
PRAIRIE TO PINES  WEATHER ROUNDUP
NATIONAL WEATHER SERVICE EASTERN NORTH DAKOTA/GRAND FORKS ND
800 PM CDT SAT JUL 04 2015

 **SATELLITE DATA USED TO AUGMENT SKY COVER AT AUTOMATED STATIONS**
 *****  WEATHER ACROSS EASTERN NORTH DAKOTA  *****

CITY           SKY/WX    TMP DP  RH WIND       PRES   REMARKS
GRAND FORKS    PTSUNNY   81  68  64 S10       29.71R
GRAND FRKS AFB MOSUNNY   80  68  66 S9        29.72R
GRAND FRKS NWS   N/A     79 N/A N/A S6          N/A
DEVILS LAKE    CLOUDY    81  66  61 SE7       29.71R
FARGO          SUNNY     82  65  56 S16G23    29.73F
WAHPETON ARPT  CLEAR     79  63  57 S12G20    29.77S
$$

 ***** WEATHER ACROSS CENTRAL AND WESTERN NORTH DAKOTA  *****

CITY           SKY/WX    TMP DP  RH WIND       PRES   REMARKS
BISMARCK       CLOUDY    81  72  74 S8        29.70F
MINOT          TSTM      73  66  78 W18G26    29.74R
JAMESTOWN      TSTM      76  63  64 SE16G33   29.73S VSB 1/4
MINOT AFB      DRIZZLE   68  68 100 N9        29.73S
GARRISON         N/A     78  70  76 W8        29.72R
WILLISTON      MOSUNNY   81  65  58 N13       29.72R
DICKINSON      CLOUDY    84  49  29 SW9       29.72S
HETTINGER      CLOUDY    83  70  64 NE6       29.76F
$$

 *****  OTHER AIRPORT OBSERVATIONS IN OUR AREA  *****

CITY           SKY/WX    TMP DP  RH WIND       PRES   REMARKS
WALHALLA       FAIR      81  68  65 MISG      29.68F
GRAFTON AIRPOR FAIR      81  70  69 S10       29.71R
VALLEY CITY AR FAIR      81  70  69 S8        29.74R
CANDO          FAIR      77  70  78 S7        29.73R
CAVALIER APRT  FAIR      81  68  65 S7        29.69F
GWINNER        FAIR      81  66  61 S9        29.76S
SHEYENNE NWR     N/A     83  68  60 S9        29.95S
ROLLA          FAIR      75  68  78 CALM      29.75R
 ***** THE ABOVE OBSERVATIONS ARE NON NWS ARE NOT QUALITY
       CONTROLLED AND MAY MIS-REPORT RAIN FOR SNOW...
$$

  *****  WEATHER ACROSS NORTHERN MINNESOTA  *****

CITY           SKY/WX    TMP DP  RH WIND       PRES   REMARKS
FLAG ISLAND    PTSUNNY   73  66  78 S8        29.76R HAZE
WARROAD        MOSUNNY   79  68  69 S5        29.77R HAZE
ROSEAU         MOSUNNY   75  70  83 S5        29.77R HAZE
HALLOCK        PTSUNNY   79  70  73 S9        29.72R
THF RVR FALLS  SUNNY     77  66  69 S3        29.79R
BAUDETTE       SUNNY     77  63  61 S8        29.79R HAZE
WASKISH        SUNNY     75  64  69 SE3       29.81R HAZE
CROOKSTON      SUNNY     81  66  61 S12       29.76R
$$
  *****  WEATHER ACROSS CENTRAL AND WEST MINNESOTA  *****

CITY           SKY/WX    TMP DP  RH WIND       PRES   REMARKS
FOSSTON        SUNNY     75  64  69 S8        29.80R HAZE
BEMIDJI        SUNNY     77  65  67 S7        29.81R HAZE
PARK RAPIDS    MOSUNNY   79  65  62 S10       29.82S
ELBOW LAKE     FAIR      77  65  67 S12       29.81F
WADENA         SUNNY     77  64  65 S9        29.83R
DETROIT LAKES  SUNNY     79  64  61 S10       29.82R
MOORHEAD       SUNNY     79  64  61 S13G20    29.77R
FERGUS FALLS   SUNNY     79  64  61 S13       29.79S
MORRIS MN      SUNNY     79  64  61 S10       29.82S
STAPLES        SUNNY     77  64  65 S7        29.84R
$$
  *****  WEATHER ELSEWHERE ACROSS MINNESOTA  *****

CITY           SKY/WX    TMP DP  RH WIND       PRES   REMARKS
DULUTH         CLEAR     67  57  70 SE9       29.90F
INTRNTL FALLS  SUNNY     75  59  57 CALM      29.81R
ELY            CLEAR     73  55  53 S10       29.86F
CLOQUET        CLEAR     64  55  72 E8        29.89F
WHEATON        SUNNY     79  63  57 SE12G17   29.80F
BRAINERD       CLOUDY    78  65  63 S7        29.84F HAZE
HIBBING        CLEAR     75  60  59 SE8       29.85F
ALEXANDRIA     SUNNY     78  65  63 S9        29.86F
SAINT CLOUD    PTCLDY    79  66  64 S10       29.86F
MINNEAPOLIS    CLEAR     81  64  56 S9        29.89S HAZE
$$

  *****  WEATHER ACROSS SOUTH DAKOTA  *****

CITY           SKY/WX    TMP DP  RH WIND       PRES   REMARKS
SIOUX FALLS    PTSUNNY   78  65  63 S13       29.86F
BROOKINGS      SUNNY     77  64  65 S12       29.88R
WATERTOWN      SUNNY     78  65  63 S13       29.83F
HURON          SUNNY     81  67  62 SE17      29.78S
SISSETON         N/A     82  65  56 S14       29.78S
ABERDEEN       MOSUNNY   82  67  60 S15       29.75F
MITCHELL       SUNNY     81  68  64 S14G22    29.81S
PIERRE         PTSUNNY   84  71  65 SE14G21   29.69S
MOBRIDGE       PTSUNNY   83  73  72 SE10      29.69F
RAPID CITY     SUNNY     87  63  44 CALM      29.79S
$$

  *****  SOME WEATHER IN NEARBY STATES *****

CITY           SKY/WX    TMP DP  RH WIND       PRES   REMARKS
GLASGOW MT     SUNNY     84  55  36 NE17      29.77R
GREAT FALLS MT SUNNY     88  48  25 E8        29.78F
CHEYENNE WY    PTSUNNY   82  49  31 W9        30.00S
SCOTTSBLUFF NE MOSUNNY   74  63  68 S9        29.84F
OMAHA NE       MOCLDY    79  64  60 SE10      29.90F
DES MOINES IA  CLOUDY    79  60  52 SE7       29.94F
DAVENPORT IA   CLEAR     73  63  70 SW3       29.99R
CHICAGO IL     CLEAR     75  57  53 E8        29.98R
EAU CLAIRE WI  CLEAR     78  64  61 SW7       29.91F
LA CROSSE WI   CLEAR     79  64  60 S7        29.93S
$$

  *****  SOME NATIONAL WEATHER *****

CITY           SKY/WX    TMP DP  RH WIND       PRES   REMARKS
LA GUARDIA NY  MOCLDY    72  55  55 NE5       29.97R
RALEIGH NC     MOCLDY    79  69  71 SW8       30.00R
ATLANTA GA     MOCLDY    79  70  74 S6        30.06R
NEW ORLEANS LA CLOUDY    79  71  76 E5        30.05R
OKLAHOMA CITY  PTCLDY    78  66  66 SE10      29.91R
ALBUQUERQUE NM CLOUDY    76  59  55 SE6       30.08S
SALT LAKE CITY PTSUNNY   89  51  27 SW22G29   29.86R THUNDER
LOS ANGELES CA PTSUNNY   66  60  81 W14       29.87S
BOISE ID       PTSUNNY   98  35  11 N8        29.75F HX  93
SEATTLE WA     MOSUNNY   91  40  16 N13       29.80S
$$

*** WEATHER ACROSS MANITOBA...SASKATCHEWAN AND ONTARIO ***
                ***ONTARIO***

CITY           SKY/WX    TMP DP  RH WIND       PRES   REMARKS
GERALDTON      CLOUDY    68  55  64 S7        29.94S
THUNDER BAY    MOCLDY    64  54  68 SE7       29.93F
SIOUX LOOKOUT  CLOUDY    72  57  60 S6        29.81
TORONTO        MOCLDY    73  57  56 NW10      29.97R
BIG TROUT LK   LGT RAIN  66  63  88 E3        29.67S
PICKLE LAKE    CLOUDY    73  55  53 S13G18    29.79S
DRYDEN         SUNNY     73  57  56 S8        29.81S
KENORA         MOSUNNY   75  61  60 S13       29.78R SMOKE
$$
                *** MANITOBA***

CITY           SKY/WX    TMP DP  RH WIND       PRES   REMARKS
BRANDON        CLOUDY    72  66  83 N6        29.75R
DAUPHIN        MOSUNNY   70  64  83 N9        29.73R HAZE
ISLAND LAKE    LGT RAIN  66  64  94 W7        29.61F
PILOT MOUND      N/A     72  66  83 N13G26      N/A
THE PAS        SMOKE     68  50  52 W7        29.70S VSB 1
THOMPSON       LGT RAIN  66  59  77 N16G23    29.61S SMOKE
WINNIPEG       TSTM      64  63  94 E9        29.73F SMOKE
LYNN LAKE      CLOUDY    57  50  77 N10G18    29.70R
CHURCHILL      CLOUDY    43  41  93 E25G31    29.72F
GILLAM         SMOKE     66  61  82 W8        29.57F VSB 1
$$
                ***SASKATCHEWAN***

CITY           SKY/WX    TMP DP  RH WIND       PRES   REMARKS
ESTEVAN        CLOUDY    75  66  73 NE10      29.77R
KINDERSLEY     SUNNY     70  52  52 N10       29.87S SMOKE
LLOYDMINSTER   PTSUNNY   66  41  39 NW12G20   29.90R
PRINCE ALBERT    N/A     68  52  56 NW7       29.81S SMOKE
REGINA         PTSUNNY   73  61  64 NW7       29.80R SMOKE
YORKTON        MOSUNNY   68  64  88 N9        29.77R FOG
N. BATTLEFORD  MOSUNNY   72  46  40 NW10      29.87R HAZE
LA RONGE       NOT AVBL
SASKATOON      SMOKE     68  45  42 NE8       29.86R VSB 1
SWIFT CURRENT  SUNNY     73  48  40 MISG      29.86S
$$
NOTE: THESE ARE AUTOMATED STATIONS WITH LIMITED QUALITY CONTROL
      "FAIR" INDICATES FEW OR NO CLOUDS BELOW 12,000 FEET WITH NO
      SIGNIFICANT WEATHER AND/OR OBSTRUCTIONS TO VISIBILITY.
      SKY/WX - SKY CONDITION AND SIGNIFICANT WEATHER.
      TMP - AIR TEMPERATURE.    DP   - DEWPOINT TEMPERATURE.
      RH  - RELATIVE HUMIDITY.  PRES - PRESSURE.
      HX  - HEAT INDEX.         WCI  - WIND CHILL INDEX.
$



USA.gov is the U.S. government's official web portal to all federal, state and local government web resources and services.